Flag for Germany Weather past 2 weeks in Waren (Müritz), Mecklenburg-Western Pomerania, Germany

Now
64 °F

Passing clouds.


Feels Like: 64 °F
Forecast: 49 / 72 °F
Wind: 9 mph from Northwest

Location: Laage

Current Time: Aug 27, 2014 at 8:06:22 PM

Latest Report: Aug 27, 2014 at 7:20 PM


Visibility: N/A

Pressure: 29.98 "Hg

Humidity: 46%

Dew point: 43 °F

Location of Waren (Müritz)Location

Historic Weather in Waren (Müritz) — Graph

°F

Waren (Müritz) temperature yesterday

Maximum temperature yesterday: 64 °F (at 2:20 PM)
Minimum temperature yesterday: 39 °F (at 4:20 AM)
Average temperature yesterday: 52 °F

Past Weeks' High & Low Weather Summary

 TemperatureHumidityPressure
High73 °F (Aug 13, 4:20 PM)100% (Aug 14, 12:20 AM)29.98 "Hg (Aug 14, 12:20 AM)
Low39 °F (Aug 26, 4:20 AM)40% (Aug 27, 4:20 PM)29.47 "Hg (Aug 18, 2:20 PM)
Average58 °F76%29.80 "Hg
* Reported Aug 12 6:20 PM — Aug 27 6:20 PM, Waren (Müritz), Weather by CustomWeather, © 2014

Note: Actual official high and low records may vary slightly from our data, if they occured in-between our weather recording intervals... More about our weather records

Advertising

Waren (Müritz) weather history for previous 24 hours

 ConditionsComfort  
Time TempWeatherWind HumidityBarometerVisibility
6:20 PM
Aug 27
66 °FPassing clouds.13 mph43%29.98 "HgN/A
5:20 PM68 °FPassing clouds.15 mph40%29.98 "HgN/A
4:20 PM68 °FPassing clouds.14 mph40%29.98 "HgN/A
3:20 PM68 °FPassing clouds.15 mph43%29.98 "HgN/A
2:20 PM68 °FPassing clouds.14 mph46%29.98 "HgN/A
1:20 PM66 °FPassing clouds.13 mph49%29.98 "HgN/A
12:20 PM66 °FScattered clouds.14 mph52%29.95 "HgN/A
11:20 AM64 °FPassing clouds.12 mph56%29.95 "HgN/A
10:20 AM63 °FScattered clouds.13 mph73%29.95 "HgN/A
9:20 AM59 °FBroken clouds.7 mph88%29.92 "HgN/A
8:20 AM55 °FFog.6 mph94%29.92 "HgN/A
7:20 AM52 °FFog.7 mph100%29.89 "Hg2 mi
6:47 AM46 °FFog.6 mph100%29.89 "Hg2 mi
6:20 AM48 °FFog.5 mph94%29.89 "Hg1 mi
5:20 AM48 °FFog.5 mph94%29.86 "Hg1 mi
4:20 AM46 °FFog.3 mph100%29.86 "Hg1 mi
3:20 AM46 °FFog.3 mph93%29.86 "Hg1 mi
2:20 AM48 °FFog.3 mph100%29.83 "HgN/A
1:20 AM50 °FCool.6 mph94%29.83 "HgN/A
12:20 AM50 °FCool.7 mph94%29.83 "HgN/A
11:20 PM
Aug 26
50 °FCool.7 mph94%29.80 "HgN/A
10:20 PM52 °FCool.6 mph88%29.80 "HgN/A
9:20 PM54 °FPassing clouds.6 mph88%29.80 "HgN/A
8:20 PM57 °FPassing clouds.5 mph77%29.80 "HgN/A
Weather by CustomWeather, © 2014

See weather overviewHow to use our weather pages